Portage Southport, Manitoba

11:23 PM CST on November 18, 2017 (GMT -0600)
Portage Southport

Weather History for CYPG - September, 2013

Change the Weather History Date:

Wednesday, September 25, 2013

  Actual Average Record
Temperature  
Mean Temperature 58 °F -  
Max Temperature 73 °F 51 °F 80 °F (2014)
Min Temperature 44 °F 35 °F 30 °F (2002)
Degree Days  
Heating Degree Days 6    
Growing Degree Days 8 (Base 50)    
Moisture  
Dew Point 51 °F    
Average Humidity 65    
Maximum Humidity 93    
Minimum Humidity 49    
Precipitation  
Precipitation 0.00 in - - ()
Sea Level Pressure  
Sea Level Pressure 29.78 in    
Wind  
Wind Speed 9 mph ()    
Max Wind Speed 20 mph    
Max Gust Speed 29 mph    
Visibility 15.0 miles    
Events      
Averages and records for this station are not official NWS values.
T = Trace of Precipitation, MM = Missing Value Source: Averaged Metar Reports

Daily Weather History Graph

Daily Weather History Graph

Search for Another Location

Airport or City:

Trip Planner

Search our weather history database for the weather conditions in past years. The results will help you decide how hot, cold, wet, or windy it might be!

Date:

Astronomy

Sep. 25, 2013 Rise Set
Actual Time 7:24 AM CDT 7:23 PM CDT
Civil Twilight 6:52 AM CDT 7:55 PM CDT
Nautical Twilight 6:14 AM CDT 8:33 PM CDT
Astronomical Twilight 5:35 AM CDT 9:12 PM CDT
Moon 11:01 PM CDT (9/25) 2:01 PM CDT (9/25)
Length of Visible Light 13h 03m
Length of Day
11h 59m
Waning Gibbous, 64% of the Moon is Illuminated
Sep 25
Waning Gibbous
Sep 26
Last Quarter
Oct 4
New
Oct 11
First Quarter
Oct 18
Full

Hourly Weather History & Observations

Time (CDT) Temp. Windchill Dew Point Humidity Pressure Visibility Wind Dir Wind Speed Gust Speed Precip Events Conditions
1:00 AM 53 °F - 44 °F 62% 29.86 in - SSW 6.9 mph - -  
6:00 AM 46.4 °F 42.9 °F 42.8 °F 87% 29.85 in 15.0 mi East 6.9 mph - N/A   Mostly Cloudy
7:00 AM 46 °F - 44 °F 90% 29.84 in - SE 3.5 mph - -  
7:00 AM 46.4 °F 45.2 °F 44.6 °F 93% 29.85 in 15.0 mi ESE 3.5 mph - N/A   Mostly Cloudy
8:00 AM 44.6 °F 39.2 °F 42.8 °F 93% 29.85 in 15.0 mi East 10.4 mph - N/A   Mostly Cloudy
9:00 AM 50.0 °F - 44.6 °F 82% 29.84 in 15.0 mi ESE 8.1 mph - N/A   Partly Cloudy
10:00 AM 57.2 °F - 46.4 °F 67% 29.82 in 15.0 mi ESE 10.4 mph - N/A   Scattered Clouds
11:00 AM 64.4 °F - 51.8 °F 64% 29.82 in 15.0 mi SE 12.7 mph - N/A   Mostly Cloudy
12:00 PM 66.2 °F - 53.6 °F 64% 29.81 in 15.0 mi SSE 17.3 mph - N/A   Mostly Cloudy
1:00 PM 69 °F - 56 °F 53% 29.76 in - SSE 10.4 mph - -  
1:00 PM 69.8 °F - 55.4 °F 60% 29.78 in 15.0 mi SE 16.1 mph 25.3 mph N/A   Mostly Cloudy
2:00 PM 73.4 °F - 55.4 °F 53% 29.75 in 15.0 mi SE 19.6 mph 28.8 mph N/A   Mostly Cloudy
3:00 PM 73.4 °F - 55.4 °F 53% 29.73 in 15.0 mi SSE 17.3 mph 26.5 mph N/A   Mostly Cloudy
4:00 PM 73.4 °F - 55.4 °F 53% 29.72 in 15.0 mi SSE 17.3 mph 24.2 mph N/A   Mostly Cloudy
5:00 PM 75.2 °F - 55.4 °F 50% 29.72 in 15.0 mi SSE 15.0 mph - N/A   Mostly Cloudy
6:00 PM 73.4 °F - 53.6 °F 50% 29.72 in 15.0 mi SE 15.0 mph 24.2 mph N/A   Mostly Cloudy
7:00 PM 69 °F - 54 °F 49% 29.71 in - SE 9.2 mph - -  
7:00 PM 71.6 °F - 53.6 °F 53% 29.72 in 15.0 mi SE 15.0 mph 21.9 mph N/A   Overcast
8:00 PM 69.8 °F - 51.8 °F 53% 29.73 in 15.0 mi SE 15.0 mph - N/A   Overcast
9:00 PM 64.4 °F - 53.6 °F 68% 29.74 in 15.0 mi ESE 11.5 mph 17.3 mph N/A   Overcast